SCP
0 0 0 0 0 0 0 0 0 0 0 0 0 0 0 0 0 0 0 0 0 0
0 0 0 0 0 0 0 0 0 0 0 0 0 0 0 0 0 0 0 0 0 0
0 0 0 0 0 0 0 0 0 0 0 0 0 0 0 0 0 0 0 0 0 0
0 0 0 0 0 0 0 0 0 0 0 0 0 0 0 0 0 0 0 0 0 0
0 0 0 0 0 0 0 0 0 0 0 0 0 0 0 0 0 0 0 0 0 0
0 0 0 0 0 0 0 0 0 0 0 0 0 0 0 0 0 0 0 0 0 0
0 0 0 0 0 0 0 0 0 0 0 0 0 0 0 0 0 0 0 0 0 0
0 0 0 0 0 0 0 0 0 0 0 0 0 0 0 0 0 0 0 0 0 0
0 0 0 0 0 0 0 0 0 0 0 0 0 0 0 0 0 0 0 0 0 0
0 0 0 0 0 0 0 0 0 0 0 0 0 0 0 0 0 0 0 0 0 0
0 0 0 0 0 0 0 0 0 0 0 0 0 0 0 0 0 0 0 0 0 0
0 0 0 0 0 0 0 0 0 0 0 0 0 0 0 0 0 0 0 0 0 0
0 0 0 0 0 0 0 0 0 0 0 0 0 0 0 0 0 0 0 0 0 0
0 0 0 0 0 0 0 0 0 0 0 0 0 0 0 0 0 0 0 0 0 0
Wind_Speed_500mb
106 111 112 107 102 100 104 98 89 87 80 69 61 55 48 44 39 37 36 35 33 30
97 99 108 107 101 96 95 97 93 89 80 74 66 58 52 48 43 40 37 36 35 33
88 94 99 103 104 100 90 94 95 91 84 77 71 65 59 53 49 44 40 40 38 37
70 79 87 94 99 97 89 90 93 91 85 80 75 72 65 60 53 49 45 43 41 40
56 66 77 85 93 93 86 87 87 86 85 85 79 75 72 66 60 54 51 46 45 44
42 51 63 72 81 85 85 85 86 84 84 83 81 80 76 69 62 57 54 50 49 46
24 34 46 58 68 78 81 83 84 81 80 81 82 81 77 72 65 61 60 54 53 50
14 22 31 42 52 63 69 76 80 81 81 82 81 80 79 74 68 66 62 60 56 53
10 18 26 33 43 49 57 67 75 80 79 79 79 80 78 72 72 69 67 64 59 55
7 5 17 27 33 39 47 55 66 73 75 78 79 79 76 74 73 72 70 66 61 58
18 9 3 14 26 35 43 51 59 65 72 76 77 77 75 73 71 74 73 69 62 59
32 25 14 7 13 25 36 44 51 57 61 67 73 75 74 72 75 78 76 71 66 62
37 34 29 21 14 14 25 35 44 51 56 60 64 67 70 71 75 79 79 76 69 67
38 36 34 31 26 21 16 21 32 42 49 57 63 66 66 68 75 79 81 78 73 71
Wind_Direction_500mb
222 221 222 225 224 221 219 217 215 216 216 217 217 216 217 222 224 229 231 234 236 242
217 215 221 224 226 225 223 220 219 219 217 216 216 217 220 223 228 233 235 237 240 244
219 218 222 224 225 226 224 223 221 219 218 218 218 218 222 225 229 234 238 240 243 244
215 214 218 221 226 227 225 223 223 222 220 220 220 221 224 228 232 236 240 242 244 245
214 214 217 219 226 228 227 225 224 223 221 222 223 225 227 229 233 237 242 245 245 245
210 210 214 218 224 228 227 226 223 222 223 224 225 227 228 232 237 240 244 246 247 247
210 213 217 218 226 230 228 226 223 223 224 225 228 228 231 234 237 242 244 247 249 248
212 213 220 218 223 227 229 228 225 225 225 227 229 230 233 235 239 242 244 246 249 250
191 196 206 216 222 226 228 227 226 226 229 230 231 233 235 237 241 243 244 248 250 250
65 205 218 215 216 223 228 229 230 231 232 234 234 236 238 239 241 244 247 249 249 249
38 32 292 238 231 226 224 226 229 231 234 236 237 239 239 240 242 245 246 248 248 249
26 18 13 331 263 246 238 233 234 235 237 238 238 240 241 240 240 242 244 245 245 245
22 12 10 3 343 287 256 249 242 240 239 240 243 243 242 241 241 242 243 243 243 243
18 12 10 6 359 343 307 272 260 254 250 247 244 244 245 241 239 241 243 244 243 243
Wind_Speed_850mb
106 111 112 107 102 100 104 98 89 87 80 69 61 55 48 44 39 37 36 35 33 30
97 99 108 107 101 96 95 97 93 89 80 74 66 58 52 48 43 40 37 36 35 33
88 94 99 103 104 100 90 94 95 91 84 77 71 65 59 53 49 44 40 40 38 37
70 79 87 94 99 97 89 90 93 91 85 80 75 72 65 60 53 49 45 43 41 40
56 66 77 85 93 93 86 87 87 86 85 85 79 75 72 66 60 54 51 46 45 44
42 51 63 72 81 85 85 85 86 84 84 83 81 80 76 69 62 57 54 50 49 46
24 34 46 58 68 78 81 83 84 81 80 81 82 81 77 72 65 61 60 54 53 50
14 22 31 42 52 63 69 76 80 81 81 82 81 80 79 74 68 66 62 60 56 53
10 18 26 33 43 49 57 67 75 80 79 79 79 80 78 72 72 69 67 64 59 55
7 5 17 27 33 39 47 55 66 73 75 78 79 79 76 74 73 72 70 66 61 58
18 9 3 14 26 35 43 51 59 65 72 76 77 77 75 73 71 74 73 69 62 59
32 25 14 7 13 25 36 44 51 57 61 67 73 75 74 72 75 78 76 71 66 62
37 34 29 21 14 14 25 35 44 51 56 60 64 67 70 71 75 79 79 76 69 67
38 36 34 31 26 21 16 21 32 42 49 57 63 66 66 68 75 79 81 78 73 71
Wind_Direction_850mb
222 221 222 225 224 221 219 217 215 216 216 217 217 216 217 222 224 229 231 234 236 242
217 215 221 224 226 225 223 220 219 219 217 216 216 217 220 223 228 233 235 237 240 244
219 218 222 224 225 226 224 223 221 219 218 218 218 218 222 225 229 234 238 240 243 244
215 214 218 221 226 227 225 223 223 222 220 220 220 221 224 228 232 236 240 242 244 245
214 214 217 219 226 228 227 225 224 223 221 222 223 225 227 229 233 237 242 245 245 245
210 210 214 218 224 228 227 226 223 222 223 224 225 227 228 232 237 240 244 246 247 247
210 213 217 218 226 230 228 226 223 223 224 225 228 228 231 234 237 242 244 247 249 248
212 213 220 218 223 227 229 228 225 225 225 227 229 230 233 235 239 242 244 246 249 250
191 196 206 216 222 226 228 227 226 226 229 230 231 233 235 237 241 243 244 248 250 250
65 205 218 215 216 223 228 229 230 231 232 234 234 236 238 239 241 244 247 249 249 249
38 32 292 238 231 226 224 226 229 231 234 236 237 239 239 240 242 245 246 248 248 249
26 18 13 331 263 246 238 233 234 235 237 238 238 240 241 240 240 242 244 245 245 245
22 12 10 3 343 287 256 249 242 240 239 240 243 243 242 241 241 242 243 243 243 243
18 12 10 6 359 343 307 272 260 254 250 247 244 244 245 241 239 241 243 244 243 243